Regional Weather Roundup
Issued by NWS Mt. Holly, NJ

Home | Current Version | Previous Version | Text Only | Print | Product List | Glossary On
Versions: 1 2 3 4 5 6 7 8 9 10 11 12 13 14 15 16 17 18 19 20 21 22 23 24 25 26 27
000
ASUS41 KPHI 240312
RWRPHI

REGIONAL WEATHER ROUNDUP
NATIONAL WEATHER SERVICE MOUNT HOLLY NJ
1100 PM EDT TUE MAY 23 2017

NOTE:  "FAIR" INDICATES FEW OR NO CLOUDS BELOW 12,000 FEET WITH NO
SIGNIFICANT WEATHER AND/OR OBSTRUCTIONS TO VISIBILITY.

 * = STATION DOES NOT REPORT PRECIPITATION (E.G. RAIN, SNOW, ETC.)
        OR FOG.

NJZ015>026-240400-
SOUTHERN NEW JERSEY

CITY           SKY/WX    TMP DP  RH WIND       PRES   REMARKS
POMONA         CLOUDY    59  50  72 E8        29.78F
WILDWOOD*      LGT RAIN  57  55  93 NE10      29.77F
MILLVILLE      CLOUDY    58  53  84 NE6       29.77F
WRIGHTSTOWN    CLEAR     57  52  84 NE3       29.78F
MOUNT HOLLY    CLOUDY    59  50  72 CALM      29.79F
TRENTON        CLOUDY    60  51  72 CALM      29.80F

$$
NJZ001>014-240400-
NORTHERN NEW JERSEY

CITY           SKY/WX    TMP DP  RH WIND       PRES   REMARKS
SUSSEX         CLOUDY    54  52  93 CALM      29.84S
ANDOVER*         N/A     55  53  93 CALM      29.82F
MORRISTOWN     CLOUDY    57  55  94 CALM      29.82F
NEWARK         CLOUDY    62  51  67 CALM      29.82F
TETERBORO      CLOUDY    62  49  62 S6        29.81F
CALDWELL       CLOUDY    63  51  65 CALM      29.82F
SOMERVILLE     CLOUDY    58  56  93 CALM      29.80F
ALLAIRE*       CLOUDY    58  51  78 E3        29.81F
TOMS RIVER*    CLOUDY    57  51  80 NE3       29.81F

$$
PAZ043-044-047-054-055-060>062-066>071-240400-
EASTERN PENNSYLVANIA

CITY           SKY/WX    TMP DP  RH WIND       PRES   REMARKS
PHILADELPHIA   CLOUDY    62  50  64 E7        29.79F
NORTH PHILA    CLOUDY    61  51  70 CALM      29.81F
BLUE BELL*     MOCLDY    54  54 100 CALM      29.81F
DOYLESTOWN     CLOUDY    58  55  90 NE3       29.80F
QUAKERTOWN*    CLOUDY    55  55 100 CALM      29.83F
PERKASIE*      CLOUDY    54  54 100 CALM      29.82F
POTTSTOWN      CLOUDY    58  53  84 CALM      29.82F
LANCASTER      CLOUDY    60  57  89 NE6       29.79F
COATESVILLE    CLOUDY    59  54  82 CALM      29.80F
READING        CLOUDY    61  54  77 CALM      29.80F
ALLENTOWN      CLOUDY    59  52  77 CALM      29.81F
MOUNT POCONO   CLOUDY    48  47  96 CALM      29.83F
HAZLETON       CLOUDY    52  45  76 CALM      29.85F
LEHIGHTON      FAIR      52  52 100 CALM      29.83F
WILKES BARRE   MOCLDY    56  48  74 E3        29.82F

$$
DEZALL-MDZ008-012-015-019-020-240400-
DELAWARE AND EASTERN MARYLAND

CITY           SKY/WX    TMP DP  RH WIND       PRES   REMARKS
WILMINGTON     CLOUDY    61  55  81 E6        29.79F
DOVER          CLOUDY    60  59  97 NE10      29.76F
GEORGETOWN     LGT RAIN  57  55  93 NE8       29.77F
EASTON         RAIN      59  54  83 E7        29.79F
PATUXENT       LGT RAIN  58  58 100 E13       29.71F
OCEAN CITY     LGT RAIN  57  55  93 NE13G18   29.75F
WALLOPS ISLAND RAIN      59  59 100 NE16      29.72F FOG
CAMBRIDGE      CLOUDY    57  55  94 NE7       29.75F
SALISBURY      LGT RAIN  56  56 100 NE9       29.73F

$$
PAZ001-021-NYZ056-072-MDZ011-DCZ001-240400-
OTHER NEARBY LOCATIONS

CITY           SKY/WX    TMP DP  RH WIND       PRES   REMARKS
HARRISBURG     CLOUDY    62  53  72 CALM      29.79F
STATE COLLEGE  CLOUDY    57  48  71 CALM      29.80F
WILLIAMSPORT   CLOUDY    59  49  69 N3        29.80F
BINGHAMTON     CLOUDY    56  44  64 S5        29.82F
NEW YORK CITY  CLOUDY    62  48  60 CALM      29.84F
BALTIMORE      CLOUDY    62  59  90 E5        29.76F
WASHINGTON DC  CLOUDY    61  57  87 N5        29.77F

$$




USA.gov is the U.S. government's official web portal to all federal, state and local government web resources and services.